• In Belarus
  • List of Countries
  • For 7 days
  • Water Temperature
  • Satellite Maps
  • Weather Map
  • Weather Widgets
  • user-avatar
    Login

    Hourly Weather Kipungo

    Today, 15 December, Friday

    Time Temperature Precipitation Wind Pressure Humidity
    00:00 +21°C° 0 mm 2 mps 653 mmHg 75%
    01:00 +21°C° 0 mm 1 mps 653 mmHg 80%
    02:00 +21°C° 0 mm 1 mps 653 mmHg 83%
    03:00 +20°C° 0 mm 1 mps 653 mmHg 85%
    04:00 +20°C° 0 mm 1 mps 653 mmHg 88%
    05:00 +21°C° 0 mm 1 mps 653 mmHg 83%
    06:00 +22°C° 0 mm 1 mps 654 mmHg 78%
    07:00 +23°C° 0 mm 1 mps 654 mmHg 73%
    08:00 +26°C° 0 mm 1 mps 655 mmHg 58%
    09:00 +29°C° 0 mm 2 mps 656 mmHg 42%
    10:00 +32°C° 0 mm 2 mps 656 mmHg 27%
    11:00 +34°C° 0 mm 2 mps 656 mmHg 24%
    12:00 +36°C° 0 mm 2 mps 655 mmHg 21%
    13:00 +37°C° 0 mm 2 mps 655 mmHg 18%
    14:00 +37°C° 0 mm 2 mps 654 mmHg 17%
    15:00 +37°C° 0 mm 2 mps 654 mmHg 17%
    16:00 +36°C° 0 mm 1 mps 653 mmHg 17%
    17:00 +33°C° 0 mm 1 mps 653 mmHg 21%
    18:00 +31°C° 0 mm 1 mps 652 mmHg 26%
    19:00 +28°C° 0 mm 1 mps 652 mmHg 31%
    20:00 +26°C° 0 mm 1 mps 652 mmHg 40%
    21:00 +25°C° 0 mm 2 mps 653 mmHg 49%
    22:00 +24°C° 0 mm 2 mps 653 mmHg 57%
    23:00 +23°C° 0 mm 2 mps 653 mmHg 62%

    Tomorrow, 16 December, Saturday

    Time Temperature Precipitation Wind Pressure Humidity
    00:00 +21°C° 0 mm 2 mps 653 mmHg 66%
    01:00 +22°C° 0 mm 1 mps 653 mmHg 70%
    02:00 +21°C° 0 mm 1 mps 652 mmHg 71%
    03:00 +21°C° 0 mm 1 mps 652 mmHg 72%
    04:00 +21°C° 0 mm 1 mps 652 mmHg 73%
    05:00 +22°C° 0 mm 1 mps 652 mmHg 68%
    06:00 +20°C° 0 mm 0 mps 653 mmHg 63%
    07:00 +21°C° 0 mm 0 mps 654 mmHg 58%
    08:00 +24°C° 0 mm 0 mps 654 mmHg 48%
    09:00 +29°C° 0 mm 1 mps 655 mmHg 38%
    10:00 +32°C° 0 mm 1 mps 656 mmHg 27%
    11:00 +34°C° 0 mm 1 mps 655 mmHg 26%
    12:00 +35°C° 0 mm 1 mps 655 mmHg 26%
    13:00 +36°C° 0 mm 1 mps 655 mmHg 25%
    14:00 +35°C° 0 mm 1 mps 654 mmHg 27%
    15:00 +35°C° 0 mm 2 mps 653 mmHg 29%
    16:00 +34°C° 0 mm 2 mps 653 mmHg 31%
    17:00 +31°C° 0 mm 2 mps 653 mmHg 37%
    18:00 +29°C° 0 mm 2 mps 653 mmHg 44%
    19:00 +27°C° 0 mm 2 mps 653 mmHg 51%
    20:00 +26°C° 0 mm 2 mps 653 mmHg 54%
    21:00 +25°C° 0 mm 3 mps 654 mmHg 58%
    22:00 +24°C° 0 mm 3 mps 654 mmHg 61%
    23:00 +24°C° 0.1 mm 2 mps 654 mmHg 64%

    Day after tomorrow, 17 December, Sunday

    Time Temperature Precipitation Wind Pressure Humidity
    00:00 +23°C° 0.1 mm 2 mps 653 mmHg 67%
    01:00 +21°C° 0.1 mm 2 mps 653 mmHg 71%
    02:00 +21°C° 0.3 mm 2 mps 652 mmHg 73%
    03:00 +21°C° 0.3 mm 1 mps 652 mmHg 75%
    04:00 +21°C° 0.3 mm 1 mps 652 mmHg 77%
    05:00 +21°C° 0 mm 1 mps 652 mmHg 75%
    06:00 +22°C° 0 mm 1 mps 653 mmHg 73%
    07:00 +22°C° 0 mm 1 mps 653 mmHg 71%
    08:00 +24°C° 0 mm 1 mps 654 mmHg 62%
    09:00 +25°C° 0 mm 1 mps 654 mmHg 53%
    10:00 +27°C° 0 mm 1 mps 655 mmHg 44%
    11:00 +27°C° 0 mm 1 mps 654 mmHg 42%
    12:00 +28°C° 0 mm 1 mps 654 mmHg 40%
    13:00 +29°C° 0 mm 2 mps 654 mmHg 38%
    14:00 +28°C° 0 mm 1 mps 653 mmHg 40%
    15:00 +28°C° 0 mm 1 mps 652 mmHg 43%
    16:00 +27°C° 0 mm 1 mps 652 mmHg 45%
    17:00 +26°C° 0 mm 1 mps 652 mmHg 49%
    18:00 +25°C° 0 mm 1 mps 652 mmHg 53%
    19:00 +24°C° 0 mm 1 mps 652 mmHg 57%
    20:00 +23°C° 0 mm 1 mps 653 mmHg 61%
    21:00 +22°C° 0 mm 1 mps 653 mmHg 65%
    22:00 +22°C° 0 mm 1 mps 653 mmHg 69%
    23:00 +21°C° 0 mm 1 mps 653 mmHg 71%

    18 December, Monday

    Time Temperature Precipitation Wind Pressure Humidity
    00:00 +21°C° 0 mm 1 mps 652 mmHg 73%
    01:00 +21°C° 0 mm 1 mps 652 mmHg 75%
    02:00 +20°C° 0 mm 1 mps 652 mmHg 76%
    03:00 +20°C° 0 mm 1 mps 651 mmHg 77%
    04:00 +20°C° 0 mm 1 mps 651 mmHg 78%
    05:00 +21°C° 0 mm 1 mps 652 mmHg 74%
    06:00 +21°C° 0 mm 1 mps 652 mmHg 70%
    07:00 +22°C° 0 mm 1 mps 653 mmHg 66%
    08:00 +24°C° 0 mm 1 mps 653 mmHg 59%
    09:00 +26°C° 0 mm 1 mps 654 mmHg 52%
    10:00 +27°C° 0 mm 2 mps 654 mmHg 45%
    11:00 +27°C° 0 mm 2 mps 653 mmHg 47%
    12:00 +27°C° 0 mm 2 mps 653 mmHg 48%
    13:00 +27°C° 0 mm 2 mps 652 mmHg 49%
    14:00 +27°C° 0 mm 3 mps 652 mmHg 51%
    15:00 +26°C° 0 mm 3 mps 651 mmHg 52%
    16:00 +26°C° 0 mm 3 mps 651 mmHg 53%
    17:00 +25°C° 0 mm 3 mps 651 mmHg 57%
    18:00 +24°C° 0 mm 2 mps 651 mmHg 60%
    19:00 +22°C° 0 mm 1 mps 651 mmHg 64%
    20:00 +22°C° 0.1 mm 1 mps 651 mmHg 65%
    21:00 +22°C° 0.1 mm 1 mps 652 mmHg 67%
    22:00 +21°C° 0.1 mm 1 mps 652 mmHg 69%
    23:00 +20°C° 0.2 mm 2 mps 652 mmHg 72%

    19 December, Tuesday

    Time Temperature Precipitation Wind Pressure Humidity
    00:00 +19°C° 0.2 mm 2 mps 651 mmHg 75%
    01:00 +19°C° 0.2 mm 2 mps 651 mmHg 78%
    02:00 +19°C° 0.1 mm 2 mps 651 mmHg 80%
    03:00 +18°C° 0.1 mm 2 mps 650 mmHg 83%
    04:00 +18°C° 0.1 mm 2 mps 650 mmHg 86%
    05:00 +18°C° 0 mm 2 mps 651 mmHg 83%
    06:00 +19°C° 0 mm 2 mps 651 mmHg 81%
    07:00 +19°C° 0 mm 2 mps 652 mmHg 78%
    08:00 +21°C° 0 mm 2 mps 652 mmHg 69%
    09:00 +24°C° 0 mm 2 mps 653 mmHg 59%
    10:00 +27°C° 0 mm 2 mps 653 mmHg 49%
    11:00 +27°C° 0 mm 2 mps 653 mmHg 46%
    12:00 +28°C° 0 mm 2 mps 653 mmHg 43%
    13:00 +29°C° 0 mm 2 mps 652 mmHg 40%
    14:00 +28°C° 0 mm 2 mps 652 mmHg 42%
    15:00 +28°C° 0 mm 2 mps 651 mmHg 45%
    16:00 +27°C° 0 mm 2 mps 651 mmHg 47%
    17:00 +26°C° 0 mm 2 mps 651 mmHg 49%
    18:00 +25°C° 0 mm 2 mps 651 mmHg 52%
    19:00 +24°C° 0 mm 2 mps 651 mmHg 54%
    20:00 +23°C° 0 mm 2 mps 652 mmHg 56%
    21:00 +20°C° 0 mm 2 mps 652 mmHg 58%
    22:00 +19°C° 0 mm 2 mps 652 mmHg 60%
    23:00 +19°C° 0 mm 2 mps 652 mmHg 59%

    20 December, Wednesday

    Time Temperature Precipitation Wind Pressure Humidity
    00:00 +19°C° 0 mm 3 mps 652 mmHg 59%
    01:00 +19°C° 0 mm 3 mps 652 mmHg 59%
    02:00 +19°C° 0 mm 2 mps 651 mmHg 58%
    03:00 +18°C° 0 mm 2 mps 651 mmHg 58%
    04:00 +19°C° 0 mm 1 mps 651 mmHg 57%
    05:00 +20°C° 0 mm 1 mps 652 mmHg 53%
    06:00 +20°C° 0 mm 1 mps 652 mmHg 49%
    07:00 +21°C° 0 mm 1 mps 653 mmHg 44%
    08:00 +24°C° 0 mm 2 mps 653 mmHg 37%
    09:00 +27°C° 0 mm 2 mps 654 mmHg 29%
    10:00 +30°C° 0 mm 2 mps 655 mmHg 21%
    11:00 +31°C° 0 mm 3 mps 654 mmHg 20%
    12:00 +33°C° 0 mm 3 mps 654 mmHg 20%
    13:00 +34°C° 0 mm 3 mps 654 mmHg 19%
    14:00 +34°C° 0 mm 3 mps 653 mmHg 20%
    15:00 +34°C° 0 mm 4 mps 653 mmHg 20%
    16:00 +33°C° 0 mm 4 mps 653 mmHg 21%
    17:00 +30°C° 0 mm 4 mps 653 mmHg 26%
    18:00 +27°C° 0 mm 3 mps 653 mmHg 32%
    19:00 +25°C° 0 mm 3 mps 653 mmHg 37%
    20:00 +22°C° 0 mm 3 mps 653 mmHg 42%
    21:00 +21°C° 0 mm 2 mps 653 mmHg 46%
    22:00 +20°C° 0 mm 2 mps 653 mmHg 51%
    23:00 +19°C° 0 mm 2 mps 653 mmHg 55%
    Show more